Voltar ao catálogo

IRAS

AtivoCiênciaSSO
NORAD 13777·PAYLOAD·🇺🇸 United States

Lançado Jan 26, 1983 de Vandenberg Space Force Base

Loading…

Próximas Passagens (próximas 24 horas)

TLE

AtualizadoSource: Space-Track

Época: Sep 14, 2026, 00:00 UTC

1 13777U 83004A   26257.00013768  .00000305  00000-0  23302-3 0  9998
2 13777  99.0710  77.9347 0019647  79.8716 280.4664 14.00990453898814

Acompanhe IRAS em tempo real com AllMySat

Download on the App Store